Easton, MD

12:47 AM EDT on April 23, 2018 (GMT -0400)
Easton / Newnam

Weather History for KESN - September, 2013

Change the Weather History Date:

Monday, September 16, 2013

  Actual Average Record
Temperature  
Mean Temperature 65 °F -  
Max Temperature 73 °F 79 °F 92 °F (1970)
Min Temperature 57 °F 58 °F 46 °F (1964)
Growing Degree Days 15 (Base 50)    
Moisture  
Dew Point 61 °F    
Average Humidity 87    
Maximum Humidity 100    
Minimum Humidity 57    
Precipitation  
Precipitation 0.00 in - - ()
Sea Level Pressure  
Sea Level Pressure 30.14 in    
Wind  
Wind Speed 2 mph (WNW)    
Max Wind Speed 9 mph    
Max Gust Speed 18 mph    
Visibility 10 miles    
Events Rain    
Averages and records for this station are not official NWS values.
T = Trace of Precipitation, MM = Missing Value Source: NWS Daily Summary

Daily Weather History Graph

Daily Weather History Graph

Search for Another Location

Airport or City:

Astronomy

Sep. 16, 2013 Rise Set
Actual Time 6:46 AM EDT 7:10 PM EDT
Civil Twilight 6:20 AM EDT 7:37 PM EDT
Nautical Twilight 5:48 AM EDT 8:08 PM EDT
Astronomical Twilight 5:16 AM EDT 8:40 PM EDT
Moon 5:16 PM EDT (9/16) 3:31 AM EDT (9/16)
Length of Visible Light 13h 17m
Length of Day
12h 23m
Waxing Gibbous, 90% of the Moon is Illuminated
Sep 16
Waxing Gibbous
Sep 19
Full
Sep 26
Last Quarter
Oct 4
New
Oct 11
First Quarter

Hourly Weather History & Observations

Time (EDT) Temp. Dew Point Humidity Pressure Visibility Wind Dir Wind Speed Gust Speed Precip Events Conditions
12:02 AM 61.2 °F 59.0 °F 93% 30.15 in 10.0 mi Calm Calm - N/A   Clear
12:22 AM 61.0 °F 59.0 °F 93% 30.15 in 10.0 mi Calm Calm - N/A   Scattered Clouds
12:42 AM 61.7 °F 59.7 °F 93% 30.15 in 10.0 mi Calm Calm - N/A   Mostly Cloudy
1:02 AM 62.1 °F 60.1 °F 93% 30.14 in 10.0 mi Calm Calm - N/A   Overcast
1:22 AM 62.6 °F 60.8 °F 94% 30.14 in 10.0 mi Calm Calm - N/A   Overcast
1:42 AM 63.1 °F 61.3 °F 94% 30.14 in 10.0 mi Calm Calm - N/A   Mostly Cloudy
2:02 AM 63.1 °F 61.7 °F 95% 30.13 in 10.0 mi Calm Calm - N/A   Mostly Cloudy
2:22 AM 63.0 °F 62.1 °F 97% 30.13 in 10.0 mi Calm Calm - N/A   Mostly Cloudy
2:42 AM 63.5 °F 63.5 °F 100% 30.12 in 10.0 mi Calm Calm - N/A   Mostly Cloudy
3:02 AM 62.6 °F 62.6 °F 100% 30.12 in 10.0 mi Calm Calm - N/A   Mostly Cloudy
3:22 AM 62.8 °F 62.8 °F 100% 30.11 in 10.0 mi Calm Calm - N/A   Mostly Cloudy
3:42 AM 64.6 °F 64.6 °F 100% 30.11 in 10.0 mi SSW 4.6 mph - N/A   Mostly Cloudy
4:02 AM 64.6 °F 64.6 °F 100% 30.11 in 10.0 mi SSW 3.5 mph - N/A   Mostly Cloudy
4:22 AM 64.2 °F 63.1 °F 96% 30.10 in 10.0 mi SW 3.5 mph - N/A   Mostly Cloudy
4:42 AM 64.0 °F 62.6 °F 95% 30.10 in 10.0 mi Calm Calm - N/A   Scattered Clouds
5:02 AM 64.4 °F 62.6 °F 94% 30.10 in 10.0 mi Calm Calm - N/A   Scattered Clouds
5:22 AM 64.6 °F 62.2 °F 92% 30.09 in 10.0 mi Calm Calm - N/A   Scattered Clouds
5:42 AM 64.9 °F 62.4 °F 92% 30.09 in 10.0 mi WSW 4.6 mph - N/A   Scattered Clouds
5:45 AM 66.2 °F 62.6 °F 88% 30.09 in 10.0 mi SW 3.5 mph - N/A   Scattered Clouds
6:02 AM 66.6 °F 63.0 °F 88% 30.09 in 10.0 mi WSW 3.5 mph - N/A   Mostly Cloudy
6:22 AM 66.2 °F 62.8 °F 89% 30.09 in 10.0 mi WSW 3.5 mph - N/A   Scattered Clouds
6:42 AM 66.4 °F 63.0 °F 89% 30.09 in 10.0 mi WSW 4.6 mph - N/A   Scattered Clouds
6:45 AM 66.2 °F 62.6 °F 88% 30.09 in 10.0 mi SW 4.6 mph - N/A   Mostly Cloudy
7:02 AM 66.9 °F 63.1 °F 88% 30.09 in 10.0 mi WSW 4.6 mph - N/A   Scattered Clouds
7:22 AM 66.7 °F 63.1 °F 88% 30.10 in 10.0 mi Calm Calm - N/A   Scattered Clouds
7:42 AM 68.7 °F 63.9 °F 84% 30.10 in 10.0 mi WSW 4.6 mph - N/A   Clear
7:45 AM 69.8 °F 64.4 °F 83% 30.10 in 10.0 mi SW 3.5 mph - N/A   Scattered Clouds
8:50 AM 73.4 °F 64.4 °F 73% 30.11 in 10.0 mi West 6.9 mph - N/A   Mostly Cloudy
9:53 AM 71.6 °F 62.6 °F 73% 30.12 in 10.0 mi NNW 5.8 mph - N/A   Mostly Cloudy
10:55 AM 68.0 °F 62.6 °F 83% 30.13 in 10.0 mi North 6.9 mph - N/A Rain Light Rain
11:47 AM 66.2 °F 59.0 °F 78% 30.15 in 10.0 mi NNE 8.1 mph 18.4 mph N/A   Light Drizzle
12:03 PM 66.2 °F 61.2 °F 84% 30.15 in 10.0 mi North 6.9 mph - N/A Rain Light Rain
12:17 PM 65.5 °F 61.9 °F 88% 30.15 in 10.0 mi NNE 8.1 mph - N/A Rain Light Rain
12:45 PM 66.2 °F 59.0 °F 78% 30.15 in 10.0 mi NNE 9.2 mph - N/A   Overcast
1:55 PM 66.2 °F 59.0 °F 78% 30.14 in 10.0 mi NE 8.1 mph - N/A   Overcast
2:50 PM 68.0 °F 60.8 °F 78% 30.14 in 10.0 mi North 8.1 mph - N/A   Overcast
3:53 PM 69.8 °F 59.0 °F 68% 30.13 in 10.0 mi North 5.8 mph - N/A   Mostly Cloudy
5:53 PM 71.6 °F 55.4 °F 57% 30.15 in 10.0 mi North 5.8 mph - N/A   Mostly Cloudy
6:53 PM 66.2 °F 55.4 °F 68% 30.16 in 10.0 mi Calm Calm - N/A   Scattered Clouds
8:53 PM 62.6 °F 55.4 °F 77% 30.21 in 10.0 mi Calm Calm - N/A   Clear
10:04 PM 59.5 °F 54.7 °F 84% 30.23 in 10.0 mi Calm Calm - N/A   Clear
10:24 PM 58.6 °F 54.7 °F 87% 30.24 in 10.0 mi Calm Calm - N/A   Clear
10:44 PM 57.7 °F 54.5 °F 89% 30.24 in 10.0 mi Calm Calm - N/A   Clear
11:04 PM 59.4 °F 55.0 °F 86% 30.25 in 10.0 mi Calm Calm - N/A   Clear
11:24 PM 59.2 °F 54.1 °F 83% 30.25 in 10.0 mi Calm Calm - N/A   Clear
11:44 PM 59.0 °F 53.6 °F 82% 30.25 in 10.0 mi Calm Calm - N/A   Clear